[[{"header":{"parameterUnit":"m.s-1","parameterCategory":1,"la1":30.2991,"la2":30.254,"lo1":-89.0895,"lo2":-89.0444,"dy":0.0017,"dx":0.0017,"nx":28,"ny":28,"refTime":"2023-11-03T09:00:00:Z","depth":0,"parameterNumber":2,"parameterNumberName":"U-component_of_WINDS"},"data":[0,0,0,0,0,0,0,0,0,0,0,0,0,0,0,0,0,0,0,0,0,0,0,0,0,0,0,0,0,0,0,0,0,0,0,0,0,0,0,0,0,0,0,0,0,0,0,0,0,0,0,0,0,0,0,0,0,0,-3.3171,-3.3172,0,-3.3272,-3.3273,-3.3274,-3.3203,-3.32,-3.3197,-3.3194,-3.3299,-3.3304,-3.331,0,0,0,0,0,0,0,0,0,0,0,0,0,-3.292,-3.2925,-3.3171,-3.3172,-3.3174,-3.3271,-3.3273,-3.3274,-3.3204,-3.32,-3.3196,-3.3193,-3.3297,-3.3304,-3.331,0,0,0,0,0,0,0,0,0,0,0,0,0,-3.3026,-3.2927,-3.3171,-3.315,-3.3149,-3.3271,-3.3273,-3.3275,-3.3205,-3.32,-3.3195,-3.3191,-3.3294,-3.3303,-3.3311,-3.3459,0,0,-3.3338,-3.3341,0,0,0,0,0,0,0,0,-3.302,-3.3035,-3.3152,-3.3152,-3.3151,-3.322,-3.3223,-3.3337,-3.3206,-3.3184,-3.3194,-3.3188,-3.3276,-3.3286,-3.3315,-3.3464,-3.3469,-3.3338,-3.3344,-3.3347,-3.335,0,0,0,0,0,0,0,-3.3013,-3.3031,-3.3211,-3.3154,-3.3153,-3.3137,-3.3146,-3.3244,-3.3256,-3.3185,-3.318,-3.3193,-3.3275,-3.3307,-3.3317,-3.347,-3.3338,-3.3346,-3.3351,-3.3354,-3.3747,-3.3752,0,0,0,0,0,0,-3.3007,-3.3025,-3.3208,-3.3214,-3.3073,-3.3145,-3.3156,-3.3203,-3.3254,-3.3258,-3.3197,-3.319,-3.3295,-3.3307,-3.3321,-3.3499,-3.3347,-3.3355,-3.336,-3.3742,-3.3748,-3.3754,0,0,0,0,0,0,-3.3002,-3.3024,-3.3204,-3.3118,-3.314,-3.3154,-3.3208,-3.3207,-3.3239,-3.3263,-3.3265,-3.3228,-3.3292,-3.3309,-3.3426,-3.3502,-3.3359,-3.3367,-3.3736,-3.3744,-3.3751,-3.3856,0,0,0,0,0,0,-3.2995,-3.3023,-3.3079,-3.312,-3.3145,-3.3307,-3.3212,-3.3213,-3.3254,-3.3245,-3.3292,-3.3296,-3.3289,-3.3413,-3.3434,-3.3511,-3.3374,-3.3729,-3.3739,-3.3749,-3.3846,-3.3867,-3.3885,0,0,0,0,0,-3.2987,-3.3104,-3.3082,-3.3104,-3.3215,-3.3311,-3.3325,-3.3315,-3.326,-3.3317,-3.3333,-3.3294,-3.349,-3.3426,-3.3449,-3.353,-3.3724,-3.3737,-3.3748,-3.3838,-3.3863,-3.3884,0,0,0,0,0,0,-3.3072,-3.3109,-3.3085,-3.3219,-3.3263,-3.3299,-3.337,-3.3342,-3.3402,-3.3391,-3.3376,-3.3388,-3.3511,-3.3531,-3.3459,-3.3676,-3.3598,-3.3616,-3.3659,-3.3683,-3.3702,-3.3695,-3.3381,0,0,0,0,0,-3.3106,-3.3181,-3.3209,-3.3325,-3.3348,-3.3356,-3.3397,-3.3386,-3.343,-3.3448,-3.3472,-3.3517,-3.3589,-3.3637,-3.3704,-3.3848,-3.3859,-3.3915,-3.3934,-3.395,-3.3966,-3.4046,-3.4072,-3.3793,-3.3793,-3.3793,0,0,-3.3178,-3.3208,-3.3256,-3.3343,-3.3375,-3.3454,-3.3372,-3.3458,-3.3517,-3.3461,-3.3574,-3.3593,-3.3642,-3.3775,-3.3834,-3.3796,-3.4044,-3.3965,-3.3977,-3.3985,-3.406,-3.4087,-3.411,-3.3801,-3.38,-3.3799,0,0,-3.335,-3.3379,-3.348,-3.3514,-3.3563,-3.3568,-3.3592,-3.3633,-3.3644,-3.3756,-3.3717,-3.3786,-3.391,-3.3947,-3.3982,-3.4169,-3.4137,-3.4191,-3.4293,-3.4371,-3.4393,-3.4412,-3.4481,-3.4506,-3.4206,-3.4207,-3.4207,0,-3.3434,-3.355,-3.3535,-3.3625,-3.3666,-3.3619,-3.3722,-3.3755,-3.3825,-3.3854,-3.381,-3.3964,-3.3994,-3.4135,-3.4181,-3.421,-3.4239,-3.4187,-3.4391,-3.441,-3.4428,-3.4494,-3.4519,-3.4213,-3.4212,-3.4212,-3.4211,0,-3.3652,-3.3733,-3.3808,-3.3877,-3.3925,-3.4021,-3.4022,-3.4073,-3.4057,-3.4066,-3.4182,-3.4216,-3.429,-3.4322,-3.4307,-3.4462,-3.4437,-3.4392,-3.4314,-3.4461,-3.4523,-3.4548,-3.4222,-3.422,-3.4218,-3.4217,0,0,-3.3881,-3.394,-3.3969,-3.4,-3.4051,-3.4114,-3.4208,-3.428,-3.4325,-3.4374,-3.4454,-3.456,-3.4519,-3.4559,-3.4548,-3.4616,-3.4765,-3.4563,-3.4564,-3.4602,-3.494,-3.4976,-3.5005,-3.4743,-3.4747,-3.4751,-3.4937,0,-3.4058,-3.4222,-3.4211,-3.4366,-3.4442,-3.4399,-3.4481,-3.4522,-3.4533,-3.46,-3.4612,-3.4688,-3.4627,-3.4651,-3.4717,-3.4733,-3.4833,-3.4719,-3.4819,-3.4823,-3.481,-3.5036,-3.5074,-3.5247,-3.496,-3.4965,-3.4967,0,-3.4286,-3.4343,-3.4506,-3.4547,-3.4579,-3.4653,-3.4719,-3.4782,-3.4828,-3.4832,-3.4877,-3.4855,-3.4951,-3.4869,-3.5003,-3.4926,-3.4965,-3.498,-3.4986,-3.4997,-3.4906,-3.5056,-3.5302,-3.5329,-3.5005,-3.5002,-3.4999,0,-3.444,-3.4558,-3.4671,-3.4698,-3.4749,-3.4802,-3.4826,-3.4867,-3.4911,-3.4969,-3.4998,-3.5066,-3.5105,-3.5158,-3.5156,-3.5096,-3.5292,-3.5209,-3.53,-3.53,-3.5345,-3.5343,-3.5604,-3.5367,-3.5366,-3.5366,-3.5365,0,-3.464,-3.4742,-3.4741,-3.4811,-3.4924,-3.4911,-3.5023,-3.5041,-3.5078,-3.5152,-3.5117,-3.5187,-3.5178,-3.5249,-3.5247,-3.5359,-3.5376,-3.5383,-3.5382,-3.5388,-3.5387,-3.5415,-3.5404,-3.5373,-3.5371,-3.537,-3.5369,0,-3.4832,-3.4836,-3.4956,-3.4994,-3.5006,-3.5088,-3.5121,-3.5187,-3.5195,-3.5289,-3.531,-3.5323,-3.5404,-3.5406,-3.5499,-3.5498,-3.5636,-3.562,-3.5621,-3.5619,-3.571,-3.5702,-3.6,-3.6039,-3.5775,-3.5777,-3.5779,0,-3.4961,-3.5038,-3.5084,-3.5131,-3.5158,-3.5233,-3.5278,-3.5268,-3.5317,-3.5376,-3.5436,-3.5514,-3.5576,-3.5708,-3.5726,-3.5798,-3.5785,-3.5884,-3.5795,-3.5799,-3.5789,-3.5786,-3.5795,-3.5902,-3.5905,-3.5908,-3.591,0,-3.5189,-3.5187,-3.5253,-3.5321,-3.5376,-3.5429,-3.5478,-3.5518,-3.5514,-3.5571,-3.5653,-3.5701,-3.5797,-3.5875,-3.5945,-3.5969,-3.5941,-3.5937,-3.5962,-3.597,-3.5969,-3.5973,-3.5671,-3.5931,-3.5929,-3.5927,-3.5926,-3.5925,-3.5355,-3.5422,-3.5466,-3.5542,-3.5577,-3.5624,-3.5689,-3.5705,-3.5774,-3.585,-3.584,-3.5933,-3.5978,-3.6068,-3.6099,-3.6172,-3.6138,-3.6173,-3.6183,-3.6193,-3.6204,-3.5955,-3.6184,-3.6184,-3.6183,-3.6182,-3.6182,0,-3.5584,-3.561,-3.5679,-3.5749,-3.5809,-3.5774,-3.5827,-3.588,-3.5961,-3.6005,-3.6067,-3.6163,-3.6239,-3.6263,-3.6338,-3.6392,-3.638,-3.6412,-3.6409,-3.6416,-3.6229,-3.6201,-3.642,-3.642,-3.642,-3.642,-3.642,-3.642,-3.571,-3.5823,-3.5826,-3.5957,-3.5982,-3.6072,-3.6105,-3.6149,-3.6184,-3.6293,-3.6356,-3.6371,-3.6408,-3.6484,-3.6553,-3.6558,-3.6589,-3.6626,-3.6627,-3.6452,-3.6428,-3.6406,-3.6379,-3.6632,-3.6633,-3.6807,-3.6809,-3.681]},{"header":{"parameterUnit":"m.s-1","parameterCategory":1,"la1":30.2991,"la2":30.254,"lo1":-89.0895,"lo2":-89.0444,"dy":0.0017,"dx":0.0017,"nx":28,"ny":28,"refTime":"2023-11-03T09:00:00:Z","depth":0,"parameterNumber":3,"parameterNumberName":"V-component_of_WINDS"},"data":[0,0,0,0,0,0,0,0,0,0,0,0,0,0,0,0,0,0,0,0,0,0,0,0,0,0,0,0,0,0,0,0,0,0,0,0,0,0,0,0,0,0,0,0,0,0,0,0,0,0,0,0,0,0,0,0,0,0,-3.1793,-3.1793,0,-3.1787,-3.1787,-3.1787,-3.1727,-3.1725,-3.1724,-3.1722,-3.1717,-3.1718,-3.172,0,0,0,0,0,0,0,0,0,0,0,0,0,-3.1751,-3.1752,-3.1793,-3.1793,-3.1793,-3.1787,-3.1787,-3.1787,-3.1727,-3.1725,-3.1723,-3.1722,-3.1717,-3.1718,-3.172,0,0,0,0,0,0,0,0,0,0,0,0,0,-3.176,-3.1752,-3.1793,-3.1762,-3.1759,-3.1787,-3.1787,-3.1787,-3.1727,-3.1725,-3.1723,-3.1721,-3.1716,-3.1718,-3.172,-3.1777,0,0,-3.1726,-3.1727,0,0,0,0,0,0,0,0,-3.1759,-3.1761,-3.1767,-3.1764,-3.1761,-3.1755,-3.177,-3.1784,-3.1728,-3.174,-3.1722,-3.172,-3.1732,-3.1732,-3.1736,-3.1777,-3.1777,-3.1726,-3.1727,-3.1728,-3.1729,0,0,0,0,0,0,0,-3.1759,-3.1761,-3.179,-3.1767,-3.1763,-3.1748,-3.1747,-3.1773,-3.1749,-3.1738,-3.1734,-3.1734,-3.173,-3.1735,-3.1736,-3.1777,-3.1726,-3.1728,-3.1729,-3.173,-3.1863,-3.1865,0,0,0,0,0,0,-3.1762,-3.1761,-3.1791,-3.179,-3.1755,-3.1751,-3.175,-3.176,-3.1748,-3.1744,-3.1736,-3.1731,-3.1732,-3.1734,-3.1735,-3.1801,-3.1728,-3.173,-3.1731,-3.186,-3.1863,-3.1866,0,0,0,0,0,0,-3.1762,-3.1766,-3.1791,-3.1775,-3.1777,-3.1754,-3.1766,-3.1761,-3.1765,-3.1746,-3.1742,-3.1745,-3.1731,-3.1733,-3.1767,-3.18,-3.1731,-3.1732,-3.1857,-3.1861,-3.1864,-3.1933,0,0,0,0,0,0,-3.1761,-3.1766,-3.1788,-3.1775,-3.1778,-3.1823,-3.1768,-3.1762,-3.1769,-3.1762,-3.1754,-3.175,-3.1729,-3.1764,-3.1769,-3.1801,-3.1734,-3.1854,-3.1859,-3.1863,-3.1927,-3.1938,-3.1947,0,0,0,0,0,-3.176,-3.1807,-3.1789,-3.1793,-3.1804,-3.1825,-3.1826,-3.1801,-3.1772,-3.1793,-3.178,-3.175,-3.1795,-3.1768,-3.1773,-3.1806,-3.1852,-3.1858,-3.1863,-3.1923,-3.1936,-3.1947,0,0,0,0,0,0,-3.1825,-3.1805,-3.1785,-3.183,-3.183,-3.1815,-3.1841,-3.1816,-3.1824,-3.1818,-3.1786,-3.1784,-3.1824,-3.1818,-3.1788,-3.186,-3.1818,-3.1825,-3.1862,-3.1875,-3.1885,-3.1885,-3.1735,0,0,0,0,0,-3.1844,-3.1862,-3.1844,-3.1886,-3.1887,-3.1864,-3.1872,-3.1853,-3.1851,-3.1851,-3.1841,-3.184,-3.1854,-3.1864,-3.1876,-3.1926,-3.1923,-3.1951,-3.1961,-3.1969,-3.1975,-3.2001,-3.2013,-3.1883,-3.1883,-3.1883,0,0,-3.1885,-3.1876,-3.189,-3.1899,-3.1896,-3.1916,-3.1865,-3.1888,-3.1902,-3.1854,-3.1886,-3.1879,-3.1876,-3.1918,-3.1936,-3.1915,-3.201,-3.1976,-3.1983,-3.1984,-3.2008,-3.202,-3.2031,-3.1887,-3.1886,-3.1886,0,0,-3.1969,-3.1965,-3.1998,-3.1996,-3.1993,-3.1977,-3.1985,-3.1974,-3.1967,-3.1998,-3.1963,-3.1979,-3.2004,-3.2003,-3.2006,-3.2088,-3.2061,-3.2093,-3.2145,-3.217,-3.218,-3.2189,-3.2218,-3.2229,-3.2099,-3.2099,-3.2099,0,-3.202,-3.2048,-3.2019,-3.2044,-3.2049,-3.2006,-3.2039,-3.2039,-3.204,-3.2044,-3.202,-3.2049,-3.2044,-3.2085,-3.2105,-3.2109,-3.2117,-3.2094,-3.2181,-3.219,-3.2198,-3.2225,-3.2236,-3.2103,-3.2103,-3.2102,-3.2102,0,-3.2111,-3.213,-3.2158,-3.2159,-3.2167,-3.2196,-3.2171,-3.2182,-3.2162,-3.2149,-3.218,-3.2173,-3.2182,-3.219,-3.2171,-3.2229,-3.2215,-3.2187,-3.2144,-3.2215,-3.224,-3.225,-3.2109,-3.2107,-3.2106,-3.2105,0,0,-3.2237,-3.222,-3.2231,-3.223,-3.2222,-3.2237,-3.2264,-3.2272,-3.2282,-3.2284,-3.2305,-3.2327,-3.23,-3.2303,-3.2283,-3.2305,-3.237,-3.2273,-3.2273,-3.2292,-3.2433,-3.2455,-3.2467,-3.2351,-3.2353,-3.2355,-3.2433,0,-3.2317,-3.2362,-3.2336,-3.2385,-3.2403,-3.2361,-3.2385,-3.2382,-3.237,-3.2383,-3.237,-3.2386,-3.2349,-3.2351,-3.2371,-3.2358,-3.2398,-3.2352,-3.2371,-3.2372,-3.2374,-3.248,-3.2504,-3.2578,-3.2443,-3.2444,-3.2446,0,-3.2418,-3.2423,-3.2473,-3.2461,-3.2467,-3.2489,-3.2493,-3.2506,-3.2503,-3.2492,-3.2496,-3.2469,-3.2495,-3.2452,-3.2487,-3.2456,-3.2462,-3.2457,-3.2459,-3.246,-3.2414,-3.2484,-3.2601,-3.2612,-3.2461,-3.246,-3.2459,0,-3.2505,-3.2524,-3.2556,-3.2557,-3.2543,-3.2559,-3.2554,-3.2548,-3.2554,-3.2558,-3.2562,-3.257,-3.2574,-3.258,-3.2557,-3.2528,-3.2594,-3.255,-3.2586,-3.2587,-3.2603,-3.2602,-3.2722,-3.2607,-3.2607,-3.2606,-3.2606,0,-3.2598,-3.263,-3.2594,-3.2614,-3.2649,-3.2618,-3.2654,-3.2644,-3.2639,-3.2656,-3.2621,-3.2638,-3.2606,-3.262,-3.2601,-3.2632,-3.2635,-3.2627,-3.2622,-3.263,-3.2631,-3.2634,-3.2628,-3.2609,-3.2609,-3.2608,-3.2607,0,-3.2701,-3.2678,-3.271,-3.2694,-3.2691,-3.2717,-3.2703,-3.2721,-3.2706,-3.2728,-3.2732,-3.2709,-3.2723,-3.27,-3.2712,-3.2699,-3.2742,-3.2729,-3.2743,-3.274,-3.2777,-3.2774,-3.2903,-3.2919,-3.2794,-3.2795,-3.2796,0,-3.2762,-3.2785,-3.2771,-3.278,-3.2777,-3.2791,-3.2797,-3.2767,-3.2775,-3.2772,-3.279,-3.2801,-3.2808,-3.2833,-3.2817,-3.2826,-3.2813,-3.2857,-3.2814,-3.2821,-3.2813,-3.2812,-3.2814,-3.2866,-3.2868,-3.2869,-3.287,0,-3.2872,-3.2859,-3.2869,-3.2874,-3.2882,-3.2885,-3.2886,-3.2895,-3.2864,-3.2874,-3.2888,-3.2893,-3.2905,-3.2916,-3.292,-3.2915,-3.2888,-3.2884,-3.2893,-3.2902,-3.2909,-3.2905,-3.2768,-3.2881,-3.288,-3.2879,-3.2879,-3.2878,-3.2956,-3.2974,-3.2967,-3.2979,-3.2976,-3.2977,-3.2992,-3.2978,-3.2989,-3.2996,-3.2977,-3.2995,-3.299,-3.2993,-3.2991,-3.3004,-3.2985,-3.2998,-3.3001,-3.3005,-3.301,-3.2907,-3.3005,-3.3005,-3.3004,-3.3004,-3.3004,0,-3.3064,-3.3057,-3.3068,-3.3069,-3.3078,-3.305,-3.3049,-3.3058,-3.3074,-3.3071,-3.3079,-3.3094,-3.3105,-3.3089,-3.3097,-3.3111,-3.3099,-3.3114,-3.3113,-3.3112,-3.3028,-3.3019,-3.3124,-3.3124,-3.3124,-3.3124,-3.3124,-3.3124,-3.3122,-3.3152,-3.3138,-3.3166,-3.3158,-3.3175,-3.3176,-3.3177,-3.3174,-3.3193,-3.3201,-3.3191,-3.3183,-3.3189,-3.3198,-3.3193,-3.3198,-3.3218,-3.3209,-3.313,-3.3118,-3.3107,-3.3099,-3.3219,-3.3219,-3.3292,-3.3293,-3.3294]}]]